KFY1097 SLVR-SPJC

Flight info

Callsign KFY1097
Flight time 2h 19m
Altitude 38000
Route DIBAS DCT LOKOX UM415 DOBNI DCT NUXON UV18 AND T336 REKEM DCT PEROV PEROV6
Aircraft A20N/M-SDE2E3FGHIRWXY/LB1

Departure

Time 2026-03-25 11:37
Airport Viru Viru International Airport (SLVR)

Arrival

Time 2026-03-25 13:56
Airport Jorge Chávez International Airport (SPJC)
Time Latitude Longitude Altitude Speed Heading
2026-03-25 11:24 -17.64703 -63.13824 1228 ft 0 kts 58°
2026-03-25 11:27 -17.64707 -63.13832 1228 ft 2 kts 58°
2026-03-25 11:27 -17.64716 -63.13846 1228 ft 2 kts 57°
2026-03-25 11:27 -17.64725 -63.13861 1228 ft 2 kts 56°
2026-03-25 11:27 -17.64735 -63.13875 1228 ft 2 kts 45°
2026-03-25 11:28 -17.64748 -63.13881 1228 ft 1 kts 333°
2026-03-25 11:28 -17.64751 -63.13879 1228 ft 0 kts 331°
2026-03-25 11:30 -17.64749 -63.13881 1228 ft 2 kts 331°
2026-03-25 11:30 -17.64730 -63.13893 1228 ft 5 kts 325°
2026-03-25 11:30 -17.64694 -63.13919 1228 ft 8 kts 327°
2026-03-25 11:30 -17.64640 -63.13955 1228 ft 11 kts 327°
2026-03-25 11:31 -17.64571 -63.14004 1228 ft 12 kts 326°
2026-03-25 11:31 -17.64498 -63.14017 1227 ft 11 kts 35°
2026-03-25 11:31 -17.64450 -63.13948 1227 ft 13 kts 60°
2026-03-25 11:31 -17.64401 -63.13870 1227 ft 14 kts 42°
2026-03-25 11:32 -17.64315 -63.13885 1227 ft 14 kts 326°
2026-03-25 11:32 -17.64225 -63.13949 1227 ft 17 kts 326°
2026-03-25 11:32 -17.64120 -63.14019 1227 ft 19 kts 328°
2026-03-25 11:32 -17.64008 -63.14088 1226 ft 16 kts 344°
2026-03-25 11:33 -17.63931 -63.14048 1225 ft 10 kts 60°
2026-03-25 11:33 -17.63928 -63.14042 1225 ft 0 kts 60°
2026-03-25 11:33 -17.63921 -63.14029 1225 ft 6 kts 60°
2026-03-25 11:34 -17.63863 -63.13975 1224 ft 16 kts
2026-03-25 11:34 -17.63755 -63.14023 1224 ft 18 kts 328°
2026-03-25 11:34 -17.63640 -63.14099 1225 ft 22 kts 327°
2026-03-25 11:34 -17.63504 -63.14192 1225 ft 25 kts 327°
2026-03-25 11:35 -17.63356 -63.14291 1226 ft 26 kts 328°
2026-03-25 11:35 -17.63231 -63.14399 1224 ft 20 kts 301°
2026-03-25 11:35 -17.63176 -63.14445 1223 ft 6 kts 42°
2026-03-25 11:35 -17.63182 -63.14406 1223 ft 7 kts 134°
2026-03-25 11:36 -17.63201 -63.14393 1223 ft 0 kts 148°
2026-03-25 11:36 -17.63278 -63.14341 1225 ft 48 kts 147°
2026-03-25 11:36 -17.63799 -63.13993 1224 ft 126 kts 147°
2026-03-25 11:36 -17.64678 -63.13399 1516 ft 159 kts 147°
2026-03-25 11:37 -17.65609 -63.12768 2355 ft 161 kts 146°
2026-03-25 11:37 -17.66569 -63.12126 3247 ft 168 kts 145°
2026-03-25 11:37 -17.67603 -63.11425 3850 ft 188 kts 146°
2026-03-25 11:37 -17.68760 -63.10644 4323 ft 208 kts 146°
2026-03-25 11:38 -17.70033 -63.09784 4757 ft 229 kts 146°
2026-03-25 11:38 -17.71451 -63.08826 5118 ft 254 kts 146°
2026-03-25 11:38 -17.73004 -63.07776 5667 ft 276 kts 146°
2026-03-25 11:38 -17.74671 -63.06716 6439 ft 285 kts 156°
2026-03-25 11:39 -17.76616 -63.06301 7238 ft 289 kts 182°
2026-03-25 11:39 -17.78571 -63.06804 7988 ft 294 kts 208°
2026-03-25 11:39 -17.80157 -63.08144 8724 ft 296 kts 234°
2026-03-25 11:39 -17.81050 -63.10072 9500 ft 295 kts 260°
2026-03-25 11:40 -17.81075 -63.12201 10224 ft 296 kts 284°
2026-03-25 11:40 -17.80256 -63.14232 10489 ft 313 kts 306°
2026-03-25 11:40 -17.78888 -63.16103 10681 ft 334 kts 309°
2026-03-25 11:40 -17.77507 -63.18114 11159 ft 343 kts 304°
2026-03-25 11:41 -17.76283 -63.20284 11809 ft 348 kts 299°
2026-03-25 11:41 -17.75185 -63.22568 12443 ft 353 kts 296°
2026-03-25 11:41 -17.74153 -63.24931 13084 ft 358 kts 295°
2026-03-25 11:41 -17.73144 -63.27338 13712 ft 363 kts 294°
2026-03-25 11:42 -17.72129 -63.29784 14266 ft 367 kts 294°
2026-03-25 11:42 -17.71105 -63.32249 14820 ft 371 kts 294°
2026-03-25 11:42 -17.70063 -63.34745 15388 ft 375 kts 294°
2026-03-25 11:42 -17.69011 -63.37257 15960 ft 378 kts 294°
2026-03-25 11:43 -17.67957 -63.39765 16514 ft 382 kts 294°
2026-03-25 11:43 -17.66878 -63.42332 16992 ft 387 kts 294°
2026-03-25 11:43 -17.65762 -63.44908 17559 ft 389 kts 299°
2026-03-25 11:43 -17.64146 -63.47189 18067 ft 393 kts 316°
2026-03-25 11:44 -17.61931 -63.48886 18515 ft 396 kts 333°
2026-03-25 11:44 -17.59333 -63.49833 18968 ft 398 kts 349°
2026-03-25 11:44 -17.56590 -63.50310 19437 ft 400 kts 351°
2026-03-25 11:44 -17.53846 -63.50852 19906 ft 403 kts 348°
2026-03-25 11:45 -17.51125 -63.51594 20374 ft 405 kts 344°
2026-03-25 11:45 -17.48436 -63.52491 20843 ft 407 kts 342°
2026-03-25 11:45 -17.45749 -63.53480 21275 ft 411 kts 341°
2026-03-25 11:45 -17.43060 -63.54509 21757 ft 413 kts 340°
2026-03-25 11:46 -17.40360 -63.55560 22204 ft 415 kts 339°
2026-03-25 11:46 -17.37824 -63.57012 22645 ft 418 kts 323°
2026-03-25 11:46 -17.35702 -63.59103 23059 ft 422 kts 309°
2026-03-25 11:46 -17.34133 -63.61705 23481 ft 425 kts 295°
2026-03-25 11:47 -17.33217 -63.64651 23825 ft 429 kts 281°
2026-03-25 11:47 -17.32780 -63.67745 24187 ft 431 kts 277°
2026-03-25 11:47 -17.32430 -63.70866 24561 ft 433 kts 277°
2026-03-25 11:47 -17.32076 -63.74001 24920 ft 434 kts 277°
2026-03-25 11:48 -17.31694 -63.77149 25258 ft 437 kts 278°
2026-03-25 11:48 -17.31289 -63.80308 25588 ft 440 kts 278°
2026-03-25 11:48 -17.30868 -63.83491 25924 ft 442 kts 278°
2026-03-25 11:48 -17.30441 -63.86681 26258 ft 444 kts 278°
2026-03-25 11:49 -17.30016 -63.89846 26574 ft 446 kts 278°
2026-03-25 11:49 -17.29582 -63.93068 26877 ft 449 kts 278°
2026-03-25 11:49 -17.29145 -63.96307 27181 ft 451 kts 278°
2026-03-25 11:49 -17.28706 -63.99560 27486 ft 453 kts 278°
2026-03-25 11:50 -17.28265 -64.02832 27794 ft 455 kts 278°
2026-03-25 11:50 -17.27821 -64.06117 28098 ft 456 kts 278°
2026-03-25 11:50 -17.27376 -64.09410 28405 ft 458 kts 278°
2026-03-25 11:50 -17.26928 -64.12716 28676 ft 460 kts 278°
2026-03-25 11:51 -17.26477 -64.16043 28948 ft 462 kts 278°
2026-03-25 11:51 -17.26024 -64.19379 29220 ft 464 kts 278°
2026-03-25 11:51 -17.25568 -64.22731 29493 ft 466 kts 278°
2026-03-25 11:51 -17.25111 -64.26094 29743 ft 468 kts 278°
2026-03-25 11:52 -17.24651 -64.29470 29998 ft 470 kts 278°
2026-03-25 11:52 -17.24187 -64.32866 30238 ft 472 kts 278°
2026-03-25 11:52 -17.23723 -64.36266 30499 ft 473 kts 278°
2026-03-25 11:52 -17.23258 -64.39666 30832 ft 472 kts 278°
2026-03-25 11:53 -17.22793 -64.43063 31049 ft 474 kts 278°
2026-03-25 11:53 -17.22301 -64.46480 31316 ft 474 kts 281°
2026-03-25 11:53 -17.21535 -64.49833 31641 ft 474 kts 287°
2026-03-25 11:53 -17.20531 -64.53105 31955 ft 473 kts 288°
2026-03-25 11:54 -17.19528 -64.56380 32267 ft 472 kts 288°
2026-03-25 11:54 -17.18533 -64.59648 32565 ft 472 kts 288°
2026-03-25 11:54 -17.17538 -64.62918 32884 ft 471 kts 288°
2026-03-25 11:54 -17.16546 -64.66178 33167 ft 471 kts 288°
2026-03-25 11:55 -17.15552 -64.69435 33454 ft 470 kts 288°
2026-03-25 11:55 -17.14557 -64.72693 33714 ft 470 kts 288°
2026-03-25 11:55 -17.13564 -64.75942 34000 ft 469 kts 288°
2026-03-25 11:55 -17.12573 -64.79182 34241 ft 468 kts 288°
2026-03-25 11:56 -17.11581 -64.82423 34475 ft 468 kts 288°
2026-03-25 11:56 -17.10590 -64.85657 34714 ft 467 kts 288°
2026-03-25 11:56 -17.09600 -64.88886 34941 ft 466 kts 288°
2026-03-25 11:56 -17.08611 -64.92114 35160 ft 466 kts 288°
2026-03-25 11:57 -17.07622 -64.95334 35384 ft 465 kts 288°
2026-03-25 11:57 -17.06635 -64.98549 35614 ft 465 kts 288°
2026-03-25 11:57 -17.05645 -65.01771 35743 ft 466 kts 288°
2026-03-25 11:57 -17.04653 -65.04997 35960 ft 466 kts 288°
2026-03-25 11:58 -17.03677 -65.08171 36199 ft 464 kts 288°
2026-03-25 11:58 -17.02688 -65.11385 36438 ft 464 kts 288°
2026-03-25 11:58 -17.01702 -65.14585 36661 ft 463 kts 288°
2026-03-25 11:58 -17.00715 -65.17788 36873 ft 462 kts 288°
2026-03-25 11:59 -16.99731 -65.20979 37077 ft 461 kts 288°
2026-03-25 11:59 -16.98747 -65.24166 37294 ft 461 kts 288°
2026-03-25 11:59 -16.97765 -65.27346 37487 ft 460 kts 288°
2026-03-25 11:59 -16.96783 -65.30527 37667 ft 460 kts 288°
2026-03-25 12:00 -16.95807 -65.33683 37778 ft 460 kts 288°
2026-03-25 12:00 -16.94816 -65.36888 37955 ft 460 kts 288°
2026-03-25 12:00 -16.93832 -65.40067 38101 ft 461 kts 288°
2026-03-25 12:00 -16.92843 -65.43259 38104 ft 464 kts 288°
2026-03-25 12:01 -16.90841 -65.49714 38127 ft 471 kts 288°
2026-03-25 12:01 -16.88816 -65.56239 38133 ft 476 kts 288°
2026-03-25 12:02 -16.86765 -65.62841 38129 ft 480 kts 289°
2026-03-25 12:02 -16.84696 -65.69491 38128 ft 483 kts 289°
2026-03-25 12:03 -16.82636 -65.76118 38165 ft 483 kts 288°
2026-03-25 12:03 -16.80621 -65.82800 38166 ft 483 kts 288°
2026-03-25 12:04 -16.78608 -65.89488 38172 ft 483 kts 288°
2026-03-25 12:04 -16.76929 -65.95042 38170 ft 483 kts 288°
2026-03-25 12:05 -16.74907 -66.01714 38205 ft 483 kts 288°
2026-03-25 12:05 -16.72880 -66.08393 38202 ft 483 kts 288°
2026-03-25 12:06 -16.70851 -66.15067 38233 ft 483 kts 288°
2026-03-25 12:06 -16.68821 -66.21741 38197 ft 483 kts 288°
2026-03-25 12:07 -16.66791 -66.28407 38220 ft 481 kts 289°
2026-03-25 12:07 -16.64762 -66.35054 38222 ft 482 kts 288°
2026-03-25 12:08 -16.62734 -66.41723 38232 ft 483 kts 288°
2026-03-25 12:08 -16.60709 -66.48400 38202 ft 482 kts 288°
2026-03-25 12:09 -16.58683 -66.55064 38209 ft 483 kts 288°
2026-03-25 12:09 -16.56655 -66.61723 38208 ft 481 kts 288°
2026-03-25 12:10 -16.54629 -66.68369 38205 ft 482 kts 288°
2026-03-25 12:10 -16.52599 -66.75020 38210 ft 481 kts 288°
2026-03-25 12:11 -16.50567 -66.81665 38186 ft 481 kts 288°
2026-03-25 12:11 -16.48533 -66.88313 38188 ft 481 kts 288°
2026-03-25 12:12 -16.46499 -66.94952 38185 ft 481 kts 289°
2026-03-25 12:12 -16.44463 -67.01586 38183 ft 481 kts 289°
2026-03-25 12:13 -16.42425 -67.08222 38183 ft 481 kts 289°
2026-03-25 12:13 -16.40381 -67.14867 38156 ft 482 kts 289°
2026-03-25 12:14 -16.38334 -67.21514 38157 ft 482 kts 289°
2026-03-25 12:14 -16.36301 -67.28109 38158 ft 481 kts 289°
2026-03-25 12:15 -16.34240 -67.34787 38157 ft 481 kts 289°
2026-03-25 12:15 -16.32189 -67.41421 38135 ft 482 kts 289°
2026-03-25 12:16 -16.30136 -67.48055 38138 ft 482 kts 289°
2026-03-25 12:16 -16.28080 -67.54688 38148 ft 482 kts 289°
2026-03-25 12:17 -16.26028 -67.61306 38149 ft 480 kts 289°
2026-03-25 12:17 -16.23989 -67.67873 38160 ft 481 kts 289°
2026-03-25 12:18 -16.21949 -67.74498 38137 ft 480 kts 289°
2026-03-25 12:18 -16.19950 -67.81095 38153 ft 480 kts 289°
2026-03-25 12:19 -16.17937 -67.87720 38158 ft 481 kts 289°
2026-03-25 12:19 -16.15910 -67.94368 38173 ft 483 kts 289°
2026-03-25 12:20 -16.14662 -67.98454 38177 ft 482 kts 289°
2026-03-25 12:20 -16.14107 -68.00272 38176 ft 482 kts 289°
2026-03-25 12:21 -16.13596 -68.01948 38150 ft 482 kts 289°
2026-03-25 12:22 -16.12970 -68.03998 38154 ft 483 kts 289°
2026-03-25 12:22 -16.12619 -68.05146 38156 ft 483 kts 289°
2026-03-25 12:23 -16.12227 -68.06430 38155 ft 483 kts 292°
2026-03-25 12:23 -16.11840 -68.07694 38126 ft 480 kts 285°
2026-03-25 12:24 -16.11438 -68.09025 38056 ft 476 kts 282°
2026-03-25 12:24 -16.10623 -68.11749 38165 ft 463 kts 289°
2026-03-25 12:24 -16.10142 -68.13345 38282 ft 463 kts 289°
2026-03-25 12:25 -16.09891 -68.14168 38244 ft 465 kts 289°
2026-03-25 12:25 -16.09458 -68.15575 38133 ft 468 kts 290°
2026-03-25 12:26 -16.09156 -68.16551 38148 ft 468 kts 288°
2026-03-25 12:26 -16.07115 -68.23131 38190 ft 474 kts 289°
2026-03-25 12:27 -16.05102 -68.29701 38187 ft 479 kts 289°
2026-03-25 12:27 -16.03079 -68.36314 38190 ft 479 kts 289°
2026-03-25 12:28 -16.01053 -68.42922 38189 ft 479 kts 289°
2026-03-25 12:28 -15.99035 -68.49526 38227 ft 480 kts 289°
2026-03-25 12:29 -15.97030 -68.56127 38439 ft 476 kts 289°
2026-03-25 12:29 -15.96036 -68.59393 38653 ft 473 kts 289°
2026-03-25 12:29 -15.95045 -68.62648 38750 ft 472 kts 289°
2026-03-25 12:30 -15.93049 -68.69189 38677 ft 476 kts 289°
2026-03-25 12:30 -15.91061 -68.75696 38741 ft 474 kts 290°
2026-03-25 12:31 -15.89061 -68.82236 38761 ft 475 kts 290°
2026-03-25 12:31 -15.87058 -68.88776 38773 ft 475 kts 290°
2026-03-25 12:32 -15.85055 -68.95313 38789 ft 475 kts 290°
2026-03-25 12:32 -15.83048 -69.01850 38762 ft 475 kts 290°
2026-03-25 12:33 -15.81041 -69.08382 38766 ft 475 kts 290°
2026-03-25 12:33 -15.79029 -69.14923 38767 ft 475 kts 290°
2026-03-25 12:34 -15.77015 -69.21464 38762 ft 476 kts 290°
2026-03-25 12:34 -15.75000 -69.27997 38778 ft 475 kts 290°
2026-03-25 12:35 -15.72995 -69.34493 38798 ft 475 kts 290°
2026-03-25 12:35 -15.70704 -69.40914 38790 ft 474 kts 296°
2026-03-25 12:36 -15.68033 -69.47164 38827 ft 472 kts 296°
2026-03-25 12:36 -15.65386 -69.53394 38809 ft 471 kts 296°
2026-03-25 12:36 -15.64073 -69.56482 38630 ft 466 kts 296°
2026-03-25 12:37 -15.62767 -69.59553 38273 ft 464 kts 296°
2026-03-25 12:37 -15.60139 -69.65717 38191 ft 470 kts 296°
2026-03-25 12:38 -15.57488 -69.71931 38206 ft 471 kts 296°
2026-03-25 12:38 -15.54839 -69.78140 38205 ft 471 kts 296°
2026-03-25 12:39 -15.52188 -69.84345 38229 ft 471 kts 296°
2026-03-25 12:39 -15.49529 -69.90563 38231 ft 473 kts 296°
2026-03-25 12:40 -15.46876 -69.96761 38456 ft 473 kts 296°
2026-03-25 12:40 -15.44210 -70.02982 38520 ft 473 kts 296°
2026-03-25 12:41 -15.41541 -70.09208 38566 ft 472 kts 296°
2026-03-25 12:41 -15.38876 -70.15419 38562 ft 472 kts 297°
2026-03-25 12:42 -15.36206 -70.21633 38532 ft 473 kts 296°
2026-03-25 12:42 -15.33522 -70.27874 38474 ft 473 kts 296°
2026-03-25 12:43 -15.30844 -70.34098 38315 ft 474 kts 296°
2026-03-25 12:43 -15.28162 -70.40324 38309 ft 473 kts 296°
2026-03-25 12:44 -15.25477 -70.46551 38299 ft 473 kts 296°
2026-03-25 12:44 -15.22787 -70.52786 38324 ft 474 kts 297°
2026-03-25 12:45 -15.20098 -70.59011 38326 ft 475 kts 296°
2026-03-25 12:45 -15.17399 -70.65257 38334 ft 474 kts 296°
2026-03-25 12:46 -15.14706 -70.71480 38333 ft 474 kts 296°
2026-03-25 12:46 -15.11998 -70.77730 38352 ft 478 kts 296°
2026-03-25 12:47 -15.09298 -70.83960 38349 ft 478 kts 296°
2026-03-25 12:47 -15.06566 -70.90218 38324 ft 476 kts 298°
2026-03-25 12:48 -15.03396 -70.96205 38320 ft 474 kts 301°
2026-03-25 12:48 -15.00185 -71.02171 38327 ft 474 kts 301°
2026-03-25 12:49 -14.96977 -71.08137 38305 ft 475 kts 301°
2026-03-25 12:49 -14.93764 -71.14100 38304 ft 474 kts 301°
2026-03-25 12:50 -14.90550 -71.20058 38304 ft 474 kts 301°
2026-03-25 12:50 -14.87333 -71.26017 38305 ft 475 kts 301°
2026-03-25 12:51 -14.84115 -71.31970 38284 ft 473 kts 301°
2026-03-25 12:51 -14.80905 -71.37909 38289 ft 473 kts 301°
2026-03-25 12:52 -14.77692 -71.43847 38288 ft 473 kts 301°
2026-03-25 12:52 -14.75021 -71.48780 38290 ft 473 kts 301°
2026-03-25 12:53 -14.71262 -71.55717 38274 ft 473 kts 301°
2026-03-25 12:53 -14.68578 -71.60662 38277 ft 477 kts 301°
2026-03-25 12:54 -14.65335 -71.66638 38277 ft 476 kts 301°
2026-03-25 12:54 -14.62094 -71.72607 38282 ft 476 kts 301°
2026-03-25 12:55 -14.58853 -71.78569 38252 ft 476 kts 301°
2026-03-25 12:55 -14.55609 -71.84532 38249 ft 476 kts 301°
2026-03-25 12:56 -14.52366 -71.90490 38251 ft 476 kts 301°
2026-03-25 12:56 -14.49110 -71.96468 38224 ft 479 kts 301°
2026-03-25 12:57 -14.45870 -72.02410 38215 ft 478 kts 301°
2026-03-25 12:57 -14.42607 -72.08389 38216 ft 479 kts 301°
2026-03-25 12:58 -14.39321 -72.14408 38206 ft 478 kts 301°
2026-03-25 12:58 -14.36078 -72.20344 38210 ft 478 kts 301°
2026-03-25 12:59 -14.32812 -72.26319 38217 ft 477 kts 301°
2026-03-25 12:59 -14.29570 -72.32243 38212 ft 473 kts 301°
2026-03-25 13:00 -14.26331 -72.38158 38198 ft 474 kts 301°
2026-03-25 13:00 -14.23112 -72.44032 38209 ft 476 kts 301°
2026-03-25 13:01 -14.19825 -72.50025 38208 ft 475 kts 301°
2026-03-25 13:01 -14.16571 -72.55954 38228 ft 475 kts 301°
2026-03-25 13:02 -14.13345 -72.61826 38221 ft 476 kts 301°
2026-03-25 13:02 -14.10060 -72.67804 38225 ft 474 kts 301°
2026-03-25 13:02 -14.08454 -72.70727 38201 ft 463 kts 301°
2026-03-25 13:03 -14.06882 -72.73586 37949 ft 455 kts 301°
2026-03-25 13:03 -14.05324 -72.76419 37263 ft 455 kts 301°
2026-03-25 13:03 -14.03757 -72.79262 36587 ft 456 kts 301°
2026-03-25 13:03 -14.02193 -72.82099 36333 ft 458 kts 301°
2026-03-25 13:04 -14.00607 -72.84973 36245 ft 466 kts 301°
2026-03-25 13:04 -13.97407 -72.90780 36236 ft 465 kts 301°
2026-03-25 13:05 -13.94241 -72.96527 36242 ft 463 kts 301°
2026-03-25 13:05 -13.91064 -73.02278 36240 ft 463 kts 301°
2026-03-25 13:06 -13.87877 -73.08048 36247 ft 464 kts 301°
2026-03-25 13:06 -13.84688 -73.13817 36340 ft 463 kts 301°
2026-03-25 13:07 -13.81503 -73.19576 36414 ft 463 kts 301°
2026-03-25 13:07 -13.78319 -73.25329 36466 ft 462 kts 301°
2026-03-25 13:08 -13.75138 -73.31073 36495 ft 462 kts 301°
2026-03-25 13:08 -13.72045 -73.36874 36475 ft 463 kts 296°
2026-03-25 13:09 -13.69873 -73.43121 36476 ft 466 kts 288°
2026-03-25 13:09 -13.68041 -73.49524 36438 ft 466 kts 288°
2026-03-25 13:10 -13.66194 -73.55924 36393 ft 467 kts 288°
2026-03-25 13:10 -13.64342 -73.62329 36346 ft 468 kts 288°
2026-03-25 13:11 -13.62486 -73.68749 36291 ft 469 kts 288°
2026-03-25 13:11 -13.60624 -73.75185 36275 ft 469 kts 288°
2026-03-25 13:12 -13.58761 -73.81616 36293 ft 469 kts 288°
2026-03-25 13:12 -13.56895 -73.88055 36293 ft 471 kts 288°
2026-03-25 13:13 -13.55017 -73.94522 36326 ft 473 kts 288°
2026-03-25 13:13 -13.53134 -74.01003 36342 ft 474 kts 288°
2026-03-25 13:14 -13.51244 -74.07498 36358 ft 475 kts 288°
2026-03-25 13:14 -13.49350 -74.14000 36363 ft 476 kts 288°
2026-03-25 13:15 -13.47463 -74.20471 36368 ft 476 kts 288°
2026-03-25 13:15 -13.45561 -74.26991 36383 ft 476 kts 288°
2026-03-25 13:16 -13.43656 -74.33512 36385 ft 477 kts 288°
2026-03-25 13:16 -13.41750 -74.40034 36380 ft 476 kts 289°
2026-03-25 13:17 -13.39842 -74.46549 36379 ft 476 kts 289°
2026-03-25 13:17 -13.37934 -74.53060 36381 ft 475 kts 288°
2026-03-25 13:18 -13.36026 -74.59567 36355 ft 476 kts 289°
2026-03-25 13:18 -13.34115 -74.66078 36351 ft 476 kts 289°
2026-03-25 13:19 -13.32202 -74.72582 36351 ft 476 kts 289°
2026-03-25 13:19 -13.30288 -74.79089 36333 ft 476 kts 289°
2026-03-25 13:20 -13.28385 -74.85551 36330 ft 476 kts 289°
2026-03-25 13:20 -13.26465 -74.92065 36338 ft 477 kts 289°
2026-03-25 13:21 -13.24530 -74.98620 36346 ft 477 kts 289°
2026-03-25 13:21 -13.22607 -75.05131 36340 ft 477 kts 289°
2026-03-25 13:22 -13.20695 -75.11594 36313 ft 476 kts 289°
2026-03-25 13:22 -13.18771 -75.18096 36316 ft 476 kts 289°
2026-03-25 13:23 -13.16844 -75.24599 36285 ft 475 kts 289°
2026-03-25 13:23 -13.14920 -75.31085 36283 ft 475 kts 289°
2026-03-25 13:24 -13.12028 -75.40821 36244 ft 476 kts 289°
2026-03-25 13:24 -13.10098 -75.47311 36251 ft 476 kts 289°
2026-03-25 13:25 -13.08168 -75.53798 36229 ft 475 kts 289°
2026-03-25 13:25 -13.05678 -75.60035 36216 ft 471 kts 305°
2026-03-25 13:26 -13.01355 -75.64949 36164 ft 461 kts 326°
2026-03-25 13:26 -12.95899 -75.68324 36157 ft 458 kts 333°
2026-03-25 13:27 -12.90345 -75.71549 36187 ft 459 kts 333°
2026-03-25 13:27 -12.84788 -75.74780 36191 ft 460 kts 333°
2026-03-25 13:28 -12.79222 -75.78011 36194 ft 461 kts 333°
2026-03-25 13:28 -12.76442 -75.79625 35981 ft 461 kts 334°
2026-03-25 13:28 -12.73698 -75.81218 35733 ft 458 kts 334°
2026-03-25 13:29 -12.70888 -75.82852 35109 ft 460 kts 334°
2026-03-25 13:29 -12.68088 -75.84479 34258 ft 466 kts 334°
2026-03-25 13:29 -12.65261 -75.86116 33481 ft 467 kts 334°
2026-03-25 13:29 -12.62438 -75.87748 32744 ft 466 kts 334°
2026-03-25 13:30 -12.59616 -75.89380 32011 ft 465 kts 333°
2026-03-25 13:30 -12.56793 -75.91013 31256 ft 466 kts 333°
2026-03-25 13:30 -12.53995 -75.92634 30840 ft 458 kts 333°
2026-03-25 13:30 -12.51270 -75.94213 30232 ft 455 kts 332°
2026-03-25 13:31 -12.48534 -75.95797 29689 ft 449 kts 332°
2026-03-25 13:31 -12.45830 -75.97361 29149 ft 443 kts 332°
2026-03-25 13:31 -12.43162 -75.98904 28627 ft 438 kts 332°
2026-03-25 13:31 -12.40527 -76.00428 28099 ft 433 kts 332°
2026-03-25 13:32 -12.37996 -76.02067 27604 ft 430 kts 323°
2026-03-25 13:32 -12.35887 -76.04211 27091 ft 427 kts 309°
2026-03-25 13:32 -12.34334 -76.06780 26575 ft 425 kts 295°
2026-03-25 13:32 -12.33404 -76.09636 25997 ft 424 kts 283°
2026-03-25 13:33 -12.32775 -76.12568 25513 ft 420 kts 283°
2026-03-25 13:33 -12.32153 -76.15481 24995 ft 418 kts 283°
2026-03-25 13:33 -12.31531 -76.18382 24473 ft 416 kts 283°
2026-03-25 13:33 -12.30911 -76.21260 23956 ft 414 kts 282°
2026-03-25 13:34 -12.30291 -76.24127 23339 ft 412 kts 282°
2026-03-25 13:34 -12.29679 -76.26970 22865 ft 407 kts 282°
2026-03-25 13:34 -12.29076 -76.29785 22362 ft 403 kts 282°
2026-03-25 13:34 -12.28483 -76.32548 21863 ft 400 kts 282°
2026-03-25 13:35 -12.27884 -76.35338 21376 ft 397 kts 282°
2026-03-25 13:35 -12.27295 -76.38079 20832 ft 394 kts 282°
2026-03-25 13:35 -12.26709 -76.40800 20332 ft 391 kts 282°
2026-03-25 13:35 -12.26126 -76.43509 19828 ft 389 kts 282°
2026-03-25 13:36 -12.25547 -76.46196 19324 ft 386 kts 283°
2026-03-25 13:36 -12.24971 -76.48862 18812 ft 384 kts 283°
2026-03-25 13:36 -12.24396 -76.51521 18281 ft 382 kts 283°
2026-03-25 13:36 -12.23827 -76.54161 17803 ft 378 kts 283°
2026-03-25 13:37 -12.23269 -76.56744 17583 ft 368 kts 283°
2026-03-25 13:37 -12.22725 -76.59261 17433 ft 357 kts 283°
2026-03-25 13:37 -12.22201 -76.61684 17265 ft 339 kts 283°
2026-03-25 13:37 -12.21700 -76.64000 16872 ft 330 kts 283°
2026-03-25 13:38 -12.21208 -76.66256 16580 ft 331 kts 283°
2026-03-25 13:38 -12.20697 -76.68588 16331 ft 331 kts 283°
2026-03-25 13:38 -12.20202 -76.70840 16095 ft 327 kts 283°
2026-03-25 13:38 -12.19705 -76.73109 15746 ft 326 kts 284°
2026-03-25 13:39 -12.19210 -76.75366 15366 ft 324 kts 283°
2026-03-25 13:39 -12.18720 -76.77600 15003 ft 321 kts 283°
2026-03-25 13:39 -12.18233 -76.79823 14591 ft 319 kts 284°
2026-03-25 13:39 -12.17749 -76.82023 14237 ft 316 kts 283°
2026-03-25 13:40 -12.17272 -76.84197 13868 ft 314 kts 283°
2026-03-25 13:40 -12.16793 -76.86379 13483 ft 312 kts 283°
2026-03-25 13:40 -12.16479 -76.87808 13228 ft 309 kts 283°
2026-03-25 13:40 -12.16010 -76.89942 12871 ft 306 kts 283°
2026-03-25 13:41 -12.15545 -76.92055 12510 ft 303 kts 283°
2026-03-25 13:41 -12.15086 -76.94146 12134 ft 300 kts 283°
2026-03-25 13:41 -12.14634 -76.96213 11778 ft 297 kts 283°
2026-03-25 13:41 -12.14186 -76.98266 11431 ft 294 kts 284°
2026-03-25 13:42 -12.13743 -77.00296 11085 ft 292 kts 284°
2026-03-25 13:42 -12.13301 -77.02313 10731 ft 289 kts 284°
2026-03-25 13:42 -12.12865 -77.04309 10385 ft 287 kts 284°
2026-03-25 13:42 -12.12430 -77.06291 10082 ft 283 kts 284°
2026-03-25 13:43 -12.12000 -77.08252 9954 ft 290 kts 284°
2026-03-25 13:43 -12.11559 -77.10259 9684 ft 290 kts 284°
2026-03-25 13:43 -12.11110 -77.12303 9102 ft 291 kts 284°
2026-03-25 13:43 -12.10672 -77.14302 8677 ft 284 kts 284°
2026-03-25 13:44 -12.10255 -77.16204 8373 ft 272 kts 283°
2026-03-25 13:44 -12.09772 -77.18038 7954 ft 264 kts 296°
2026-03-25 13:44 -12.08668 -77.19457 7678 ft 254 kts 325°
2026-03-25 13:44 -12.07091 -77.20328 7559 ft 261 kts 334°
2026-03-25 13:45 -12.05469 -77.21129 7444 ft 257 kts 334°
2026-03-25 13:45 -12.03859 -77.21925 7211 ft 258 kts 334°
2026-03-25 13:45 -12.02236 -77.22729 6888 ft 259 kts 334°
2026-03-25 13:45 -12.00618 -77.23537 6571 ft 258 kts 334°
2026-03-25 13:46 -11.99022 -77.24365 6247 ft 257 kts 333°
2026-03-25 13:46 -11.97441 -77.25197 5925 ft 254 kts 333°
2026-03-25 13:46 -11.95876 -77.26020 5616 ft 252 kts 333°
2026-03-25 13:46 -11.94325 -77.26833 5319 ft 249 kts 333°
2026-03-25 13:47 -11.92791 -77.27635 5063 ft 245 kts 333°
2026-03-25 13:47 -11.91252 -77.28427 4826 ft 250 kts 334°
2026-03-25 13:47 -11.89692 -77.29196 4583 ft 247 kts 334°
2026-03-25 13:47 -11.88165 -77.29938 4421 ft 238 kts 335°
2026-03-25 13:48 -11.86714 -77.30645 4293 ft 223 kts 334°
2026-03-25 13:48 -11.85292 -77.31051 4138 ft 206 kts
2026-03-25 13:48 -11.83980 -77.30657 3982 ft 194 kts 32°
2026-03-25 13:48 -11.83083 -77.29614 3936 ft 208 kts 60°
2026-03-25 13:49 -11.82443 -77.28292 3848 ft 204 kts 63°
2026-03-25 13:49 -11.81834 -77.26996 3539 ft 202 kts 63°
2026-03-25 13:49 -11.81225 -77.25703 3134 ft 202 kts 63°
2026-03-25 13:49 -11.80667 -77.24395 2706 ft 199 kts 75°
2026-03-25 13:50 -11.80759 -77.23047 2425 ft 184 kts 111°
2026-03-25 13:50 -11.81429 -77.22032 2196 ft 164 kts 136°
2026-03-25 13:50 -11.82321 -77.21344 2127 ft 159 kts 149°
2026-03-25 13:50 -11.83273 -77.20808 2133 ft 155 kts 154°
2026-03-25 13:51 -11.84236 -77.20328 2126 ft 155 kts 155°
2026-03-25 13:51 -11.85200 -77.19850 2129 ft 156 kts 155°
2026-03-25 13:51 -11.86192 -77.19359 2106 ft 156 kts 155°
2026-03-25 13:51 -11.87130 -77.18894 1975 ft 149 kts 155°
2026-03-25 13:52 -11.88067 -77.18431 1715 ft 147 kts 156°
2026-03-25 13:52 -11.88968 -77.17984 1732 ft 145 kts 156°
2026-03-25 13:52 -11.89877 -77.17535 1732 ft 147 kts 155°
2026-03-25 13:52 -11.90797 -77.17079 1716 ft 145 kts 156°
2026-03-25 13:53 -11.91694 -77.16633 1731 ft 144 kts 155°
2026-03-25 13:53 -11.92578 -77.16197 1721 ft 139 kts 155°
2026-03-25 13:53 -11.93463 -77.15757 1672 ft 145 kts 156°
2026-03-25 13:53 -11.94360 -77.15314 1461 ft 141 kts 156°
2026-03-25 13:54 -11.95247 -77.14875 1269 ft 142 kts 156°
2026-03-25 13:54 -11.96125 -77.14440 1050 ft 140 kts 157°
2026-03-25 13:54 -11.97000 -77.14010 858 ft 138 kts 156°
2026-03-25 13:54 -11.97863 -77.13582 682 ft 139 kts 155°
2026-03-25 13:55 -11.98727 -77.13150 512 ft 140 kts 155°
2026-03-25 13:55 -11.99613 -77.12711 347 ft 144 kts 156°
2026-03-25 13:55 -12.00504 -77.12271 147 ft 138 kts 155°
2026-03-25 13:55 -12.01348 -77.11852 49 ft 123 kts 152°
2026-03-25 13:56 -12.01962 -77.11541 59 ft 69 kts 154°
2026-03-25 13:56 -12.02187 -77.11383 66 ft 32 kts 135°
2026-03-25 13:56 -12.02282 -77.11280 68 ft 0 kts 129°
2026-03-25 14:00 -12.02283 -77.11279 70 ft 1 kts 129°
2026-03-25 14:00 -12.02290 -77.11270 67 ft 3 kts 129°
2026-03-25 14:00 -12.02306 -77.11249 68 ft 5 kts 128°
2026-03-25 14:00 -12.02333 -77.11213 71 ft 8 kts 124°
2026-03-25 14:01 -12.02366 -77.11157 70 ft 11 kts 121°
2026-03-25 14:01 -12.02426 -77.11105 67 ft 12 kts 152°
2026-03-25 14:01 -12.02485 -77.11036 55 ft 14 kts 118°
2026-03-25 14:01 -12.02547 -77.10953 72 ft 15 kts 144°
2026-03-25 14:02 -12.02630 -77.10911 69 ft 14 kts 155°
2026-03-25 14:02 -12.02677 -77.10857 75 ft 8 kts 122°
2026-03-25 14:02 -12.02680 -77.10819 76 ft 5 kts 45°
2026-03-25 14:02 -12.02659 -77.10800 71 ft 0 kts 37°